Weather History for Elko, NV

Change the Weather History Date:

Wednesday, February 26, 2014

  Actual Average Record
Temperature  
Mean Temperature 45 °F 34 °F  
Max Temperature 63 °F 46 °F 65 °F (1950)
Min Temperature 27 °F 22 °F -31 °F (1890)
Degree Days  
Heating Degree Days 20 31  
Month to date heating degree days 732 921  
Since 1 July heating degree days 4680 5106  
Cooling Degree Days 0 0  
Month to date cooling degree days 0 0  
Year to date cooling degree days 0 0  
Moisture  
Dew Point 24 °F    
Average Humidity 50    
Maximum Humidity 85    
Minimum Humidity 14    
Precipitation  
Precipitation 0.00 in 0.03 in 0.60 in (1902)
Month to date precipitation 1.72 0.78  
Year to date precipitation 2.14 1.90  
Snow  
Snow 0.00 in 0.20 in 6.00 in (1902)
Month to date snowfall 1.6 6.0  
Since 1 July snowfall 12.3 32.1  
Snow Depth 0.00 in    
Sea Level Pressure  
Sea Level Pressure 29.88 in    
Wind  
Wind Speed 5 mph (SE)    
Max Wind Speed 16 mph    
Max Gust Speed 20 mph    
Visibility 10 miles    
Events      
T = Trace of Precipitation, MM = Missing Value Source: NWS Daily Summary

Daily Weather History Graph

Daily Weather History Graph

Search for Another Location

Airport:

Trip Planner

Search our weather history database for the weather conditions in past years. The results will help you decide how hot, cold, wet, or windy it might be!

Date:

Astronomy

Feb. 26, 2014 Rise Set
Actual Time 6:21 AM PST 5:31 PM PST
Civil Twilight 5:53 AM PST 5:58 PM PST
Nautical Twilight 5:22 AM PST 6:30 PM PST
Astronomical Twilight 4:50 AM PST 7:02 PM PST
Moon 4:12 AM PST (2/26) 2:50 PM PST (2/26)
Length of Visible Light 12h 04m
Length of Day
11h 09m
Waning Crescent, 9% of the Moon is Illuminated
Feb 26
Waning Crescent
Mar 1
New
Mar 8
First Quarter
Mar 16
Full
Mar 23
Last Quarter

Hourly Weather History & Observations

Time (PST) Temp. Windchill Dew Point Humidity Pressure Visibility Wind Dir Wind Speed Gust Speed Precip Events Conditions
12:56 AM 32.0 °F - 25.0 °F 75% 29.99 in 10.0 mi Calm Calm - N/A   Clear
1:56 AM 32.0 °F 27.5 °F 25.0 °F 75% 29.99 in 10.0 mi Variable 4.6 mph - N/A   Clear
2:56 AM 30.9 °F - 25.0 °F 79% 29.98 in 10.0 mi Calm Calm - N/A   Clear
3:56 AM 27.0 °F - 23.0 °F 85% 29.99 in 10.0 mi Calm Calm - N/A   Clear
4:56 AM 28.9 °F - 24.1 °F 82% 29.99 in 10.0 mi Calm Calm - N/A   Clear
5:56 AM 30.0 °F 25.2 °F 25.0 °F 82% 30.02 in 10.0 mi East 4.6 mph - N/A   Clear
6:56 AM 30.0 °F 24.1 °F 26.1 °F 85% 30.03 in 10.0 mi ENE 5.8 mph - N/A   Clear
7:56 AM 35.1 °F 32.2 °F 28.0 °F 76% 30.03 in 10.0 mi East 3.5 mph - N/A   Clear
8:56 AM 43.0 °F 41.3 °F 30.9 °F 62% 30.00 in 10.0 mi East 3.5 mph - N/A   Clear
9:56 AM 48.9 °F - 32.0 °F 52% 29.98 in 10.0 mi NNE 6.9 mph - N/A   Clear
10:56 AM 53.1 °F - 28.9 °F 40% 29.94 in 10.0 mi NE 5.8 mph - N/A   Clear
11:56 AM 57.0 °F - 21.9 °F 26% 29.92 in 10.0 mi Variable 3.5 mph - N/A   Clear
12:56 PM 61.0 °F - 21.9 °F 22% 29.86 in 10.0 mi Calm Calm - N/A   Clear
1:56 PM 62.1 °F - 18.0 °F 18% 29.82 in 10.0 mi South 10.4 mph - N/A   Clear
2:56 PM 63.0 °F - 14.0 °F 15% 29.80 in 10.0 mi SSE 9.2 mph - N/A   Clear
3:56 PM 63.0 °F - 12.9 °F 14% 29.79 in 10.0 mi SE 9.2 mph - N/A   Clear
4:56 PM 57.9 °F - 15.1 °F 19% 29.79 in 10.0 mi SSE 5.8 mph - N/A   Clear
5:56 PM 55.0 °F - 18.0 °F 23% 29.78 in 10.0 mi SSE 6.9 mph - N/A   Clear
6:56 PM 52.0 °F - 21.9 °F 31% 29.80 in 10.0 mi WSW 3.5 mph - N/A   Mostly Cloudy
7:56 PM 54.0 °F - 21.9 °F 29% 29.77 in 10.0 mi South 9.2 mph - N/A   Mostly Cloudy
8:56 PM 53.1 °F - 27.0 °F 37% 29.75 in 10.0 mi SW 10.4 mph - N/A   Overcast
9:56 PM 46.0 °F 42.5 °F 28.9 °F 51% 29.77 in 10.0 mi SW 6.9 mph - N/A   Clear
10:56 PM 44.1 °F - 28.0 °F 53% 29.74 in 10.0 mi Calm Calm - N/A   Clear
11:56 PM 45.0 °F - 28.9 °F 53% 29.71 in 10.0 mi Calm Calm - N/A   Partly Cloudy